{"data":{"norad_id":60373,"epoch":"2026-09-21T19:46:34.051872Z","epoch_age_seconds":71236,"freshness":"FRESH","line1":"1 60373U 24138U   26264.82400523 -.00000581  00000+0 -69665-5 0  9993","line2":"2 60373  53.1606 117.3714 0001418  80.6353 279.4809 15.31697934120577","mean_motion":15.31697934,"eccentricity":0.0001418,"inclination_deg":53.1606,"raan_deg":117.3714,"arg_perigee_deg":80.6353,"mean_anomaly_deg":279.4809,"bstar":-6.9665e-6,"rev_number":12057,"period_min":94.01331476889,"perigee_km":469.77498223985,"apogee_km":471.71732550228,"semimajor_km":6848.8831538711,"source":"CELESTRAK","updated_at":"2026-09-22T09:00:49.227306Z"}}